Regional Weather Roundup
Issued by NWS

Home | Current Version | Previous Version | Graphics & Text | Print | Product List | Glossary Off
Versions: 1 2 3 4 5 6 7 8 9 10 11 12 13 14 15 16 17 18 19 20 21 22 23 24 25 26 27 28 29 30 31 32 33 34 35 36 37 38 39 40 41 42 43 44 45 46 47 48 49 50

000
ASUS43 KMPX 230501
RWRMN
WEATHER ROUNDUP FOR MINNESOTA
NATIONAL WEATHER SERVICE TWIN CITIES/CHANHASSEN MN
1200 AM CDT WED JUL 23 2014


NOTE: "FAIR" INDICATES FEW OR NO CLOUDS BELOW 12,000 FEET WITH NO
SIGNIFICANT WEATHER AND/OR OBSTRUCTIONS TO VISIBILITY. N/A MEANS
CURRENT SKY AND/OR WEATHER CONDITIONS ARE NOT AVAILABLE.

MNZ060>063-068>070-230600-
   Twin Cities Metro

CITY           SKY/WX    TMP DP  RH WIND       PRES   REMARKS
TWIN CITIES    CLEAR     71  56  58 N9        30.16R
ST PAUL          N/A     70  56  61 N9        30.16R
CRYSTAL        CLEAR     69  55  60 NW7       30.16R
BLAINE         CLEAR     68  57  68 NW7       30.17R
LAKEVILLE      CLEAR     66  55  68 NW5       30.16R
EDEN PRAIRIE   CLEAR     69  56  62 NW7       30.16R
SOUTH ST PAUL  CLEAR     71  56  58 N7        30.15R
LAKE ELMO      FAIR      66  57  72 N5        30.17R
$$
MNZ001>005-007-008-013>017-022>024-027-028-230600-
   Northwest Minnesota

CITY           SKY/WX    TMP DP  RH WIND       PRES   REMARKS
BEMIDJI        PTCLDY    58  53  83 NW5       30.23S
HALLOCK        CLEAR     63  57  82 N3        30.24R
ROSEAU         CLEAR     59  54  82 N7        30.24R
WARROAD        CLEAR     61  55  82 NW6       30.23S
THIEF RVR FALL CLEAR     63  57  82 CALM      30.24S
CROOKSTON      CLEAR     61  57  88 CALM      30.24S
FOSSTON        CLEAR     57  54  88 CALM      30.24S
DETROIT LAKES  CLEAR     63  55  77 NW5       30.26R
MOORHEAD       CLEAR     64  63  94 CALM      30.26R
PARK RAPIDS    CLEAR     57  53  86 NW6       30.23S
$$
MNZ006-009>011-018-025>026-230600-
   North Central Minnesota

CITY           SKY/WX    TMP DP  RH WIND       PRES   REMARKS
BAUDETTE       MOCLDY    61  56  83 W5        30.23R
FLAG ISLAND      N/A     64  55  72 NW12      30.21R HAZE
INTL FALLS     PTCLDY    61  56  83 CALM      30.20R
WASKISH        CLEAR     64  57  77 NW6       30.22R
BIG FORK       CLEAR     55  54  94 NW1       30.21R
LONGVILLE      CLEAR     55  55 100 CALM      30.21S
GRAND RAPIDS   CLEAR     55  52  88 CALM      30.21R
CRANE LAKE     CLOUDY    63  55  77 CALM      30.21R
ORR            CLEAR     57  54  88 CALM      30.18R
$$
MNZ012-019>021-037-230600-
   Northeast Minnesota

CITY           SKY/WX    TMP DP  RH WIND       PRES   REMARKS
DULUTH         CLEAR     62  53  72 NW5       30.18R
ELY            PTCLDY    57  52  82 CALM      30.18R
HIBBING        PTCLDY    54  51  90 CALM      30.19R
DULUTH HARBOR  CLEAR     64  57  77 S3        30.16R
TWO HARBORS    CLEAR     61  52  72 NW3       30.15R
SILVER BAY     CLEAR     52  52 100 CALM      30.14R
GRAND MARAIS     N/A     47  47 100 CALM      30.13R
G MARAIS ARPRT CLEAR     54  50  87 NW6       30.18R
$$
MNZ029>031-032-039>041-046>048-054>057-064-230600-
   West Central Minnesota

CITY           SKY/WX    TMP DP  RH WIND       PRES   REMARKS
FERGUS FALLS   CLEAR     61  55  82 N5        30.25R
WHEATON        CLEAR     61  57  88 CALM      30.27R
MORRIS         CLEAR     61  57  88 N7        30.23R
ALEXANDRIA     CLEAR     64  57  78 N5        30.25R
ELBOW LAKE     FAIR      62  58  86 N5        30.24S
WADENA         CLEAR     57  54  88 NW5       30.23S
GLENWOOD       CLEAR     61  55  82 NW5       30.25R
APPLETON       PTCLDY    64  55  72 N7        30.23R
BENSON         PTCLDY    57  55  94 N5        30.23R
ORTONVILLE     PTCLDY    64  55  72 N9        30.24S
MADISON        PTCLDY    66  57  72 N6        30.24R
WILLMAR        FAIR      63  55  77 NW6       30.23S
$$
MNZ033>034-036-042>043-049>051-058-059-230600-
   Central Minnesota

CITY           SKY/WX    TMP DP  RH WIND       PRES   REMARKS
ST CLOUD       CLEAR     65  54  67 N5        30.19R
SAUK CENTRE    FAIR      62  55  79 NW5       30.23R
PAYNESVILLE    HVY RAIN  60  53  78 W3        30.22S
AITKIN         CLEAR     57  52  82 CALM      30.19S
PINE RIVER     CLEAR     61  55  82 CALM      30.24F
BRAINERD       CLEAR     57  55  93 CALM      30.21S
STAPLES        CLEAR     59  54  82 NW5       30.23R
LONG PRAIRIE   FAIR      59  54  82 NW5       30.23R
LITTLE FALLS   CLEAR     59  54  82 CALM      30.21S
LITCHFIELD     CLEAR     66  55  68 NW6       30.21R
BUFFALO        CLEAR     67  54  62 NW5       30.20R
MAPLE LAKE     CLEAR     67  56  68 N7        30.20R
$$
MNZ037-044-045-052-053-230600-
   East Central Minnesota

CITY           SKY/WX    TMP DP  RH WIND       PRES   REMARKS
PRINCETON      CLEAR     64  55  72 NW6       30.19R
MORA           CLEAR     63  54  72 CALM      30.21R
CAMBRIDGE      CLEAR     66  55  68 NW5       30.17R
RUSH CITY      PTCLDY    64  56  77 CALM      30.18R
MOOSE LAKE     CLEAR     59  54  82 CALM      30.17R
HINCKLEY       FAIR      63  55  77 NW6       30.18R
CLOQUET        CLEAR     57  54  88 NW3       30.19R
MCGREGOR       CLEAR     61  55  82 CALM      30.21R
$$
MNZ071>073-080-081-089-090-097-098-230600-
   Southwest Minnesota

CITY           SKY/WX    TMP DP  RH WIND       PRES   REMARKS
MONTEVIDEO     PTCLDY    63  55  77 N5        30.24R
GRANITE FALLS  PTCLDY    63  56  78 NW8       30.24R
CANBY          PTCLDY    60  57  88 NW6       30.26R
MARSHALL       PTCLDY    61  55  82 NW8       30.23R
REDWOOD FALLS  CLEAR     67  57  70 NW8       30.20R
OLIVIA         PTCLDY    63  55  77 NW5       30.21R
PIPESTONE      PTCLDY    64  55  72 N5        30.25S
WINDOM         CLEAR     64  57  77 NW9       30.22R
WORTHINGTON    CLEAR     61  55  82 NW7       30.24R
JACKSON        CLEAR     61  54  77 NW6       30.22R
TRACY          PTCLDY    64  58  82 NW7       30.24R
SLAYTON        CLEAR     63  57  82 CALM      30.25R
$$
MNZ065>067-074>077-082>085-091>093-230600-
   South Central Minnesota

CITY           SKY/WX    TMP DP  RH WIND       PRES   REMARKS
MANKATO        CLEAR     66  54  63 N7        30.17R
NEW ULM        CLEAR     64  57  77 NW8       30.19R
ST JAMES       CLEAR     63  57  82 NW6       30.20R
FAIRMONT       CLEAR     64  54  68 N7        30.18S
GLENCOE        CLEAR     67  54  62 NW3       30.18R
FARIBAULT      CLEAR     66  55  68 NW3       30.17R
OWATONNA       CLEAR     63  55  77 NW5       30.17R
WASECA         CLEAR     61  54  77 NW6       30.18R
ALBERT LEA     CLEAR     68  55  64 N7        30.16R
$$
MNZ078>079-086>088-094>096-230600-
   Southeast Minnesota

CITY           SKY/WX    TMP DP  RH WIND       PRES   REMARKS
ROCHESTER      CLEAR     67  58  72 N8        30.15R
RED WING       CLEAR     70  55  60 N7        30.12R
STANTON        CLEAR     67  55  64 N7        30.14R
DODGE CENTER   CLEAR     64  57  77 NW7       30.16R
WINONA         CLEAR     70  63  78 NW3       30.11R
AUSTIN         CLEAR     66  57  72 N6        30.15R
PRESTON        CLEAR     67  64  91 N8        30.14R
$$
ABBREVIATIONS USED IN REMARKS
   TC - TEMPERATURES IN CELSIUS
  WCI - WIND CHILL INDEX
   HX - HEAT INDEX
  VSB - VISIBILITY
$$


USA.gov is the U.S. government's official web portal to all federal, state and local government web resources and services.